Regional Weather Roundup
Issued by NWS

Home | Current Version | Previous Version | Graphics & Text | Print | Product List | Glossary On
Versions: 1 2 3 4 5 6 7 8 9 10 11 12 13 14 15 16 17 18 19 20 21 22 23 24 25 26 27 28 29 30 31 32 33 34 35 36 37 38 39 40 41 42 43 44 45 46 47 48 49 50
000
ASUS43 KFSD 021210
RWRSD

WEATHER ROUNDUP FOR SOUTH DAKOTA
NATIONAL WEATHER SERVICE SIOUX FALLS SD
600 AM CST MON MAR 02 2015

NOTE: "FAIR" INDICATES FEW OR NO CLOUDS BELOW 12,000 FEET WITH NO
SIGNIFICANT WEATHER AND/OR OBSTRUCTIONS TO VISIBILITY.


SDZ001>005-009-010-012>017-021300-
NORTHWEST AND NORTH CENTRAL SOUTH DAKOTA

CITY           SKY/WX    TMP DP  RH WIND       PRES   REMARKS
BUFFALO          N/A     12   6  77 S10       29.94F WCI  -1
FAITH            N/A     12   5  73 SE18      30.12F WCI  -6
MOBRIDGE       CLEAR      9   6  88 SE9       30.23F WCI  -4
$$

SDZ012>016-024>037-041>051-057-063-072>074-021300-
SOUTHWEST AND SOUTH CENTRAL SOUTH DAKOTA

CITY           SKY/WX    TMP DP  RH WIND       PRES   REMARKS
RAPID CTY ARPT CLEAR     16   8  71 SE9       30.04F WCI   4
PIERRE         PTCLDY    13  10  88 SE7       30.27F WCI   3
CUSTER         MOCLDY    17   9  70 SW9       29.94F WCI   6
ELLSWORTH AFB  CLEAR     17   8  67 S21       30.02F WCI   0
PHILIP         PTCLDY    10   4  76 E7        30.18F WCI  -1
PINE RIDGE     MOCLDY    25  10  53 VRB5      30.08F WCI  19
WINNER         FAIR      19   6  57 SE13      30.28F WCI   6
$$

SDZ004>011-016>023-039-040-021300-
NORTHEAST SOUTH DAKOTA

CITY           SKY/WX    TMP DP  RH WIND       PRES   REMARKS
ABERDEEN       HAZE       4  -1  80 S5        30.37F VSB 3/4 WCI  -5
WATERTOWN      PTCLDY    -1  -4  87 SE6       30.37F WCI -13
SISSETON         N/A      5   0  79 SW8       30.38F WCI  -8
$$

SDZ017-020-022-023-036>040-048>070-021300-
SOUTHEAST SOUTH DAKOTA

CITY           SKY/WX    TMP DP  RH WIND       PRES   REMARKS
SIOUX FALLS    PTCLDY     3  -1  83 CALM      30.43F
HURON          MOCLDY     5   2  87 SE6       30.39F WCI  -6
CHAMBERLAIN    CLEAR     10   7  85 SE7       30.32F WCI   0
MITCHELL       PTCLDY     9   6  88 S9        30.42S WCI  -4
YANKTON        PTCLDY    10   7  85 CALM      30.45F
$$

ABBREVIATIONS USED IN REMARKS
   TC - TEMPERATURE IN CELSIUS
  WCI - WIND CHILL INDEX
   HX - HEAT INDEX
  VSB - VISIBILITY



USA.gov is the U.S. government's official web portal to all federal, state and local government web resources and services.